Zurück zum Katalog

TIANLU-1

AktivWetterSSO
NORAD 62725·PAYLOAD·🇨🇳 China
Dieser Satellitenname wurde noch nicht durch offizielle Quellen bestätigt.

Gestartet Jan 17, 2025 von Jiuquan Satellite Launch Center

Loading…

Nächste Überflüge (nächste 24 Stunden)

TLE

AktuellSource: Space-Track

Epoche: Sep 14, 2026, 22:14 UTC

1 62725U 25012A   26257.92686318  .00006010  00000-0  30202-3 0  9994
2 62725  97.4147 328.5901 0004205 335.4415  24.6618 15.17619930 91807

Verfolge TIANLU-1 in Echtzeit mit AllMySat

Download on the App Store